TimeMDT,TemperatureF,Dew PointF,Humidity,Sea Level PressureIn,VisibilityMPH,Wind Direction,Wind SpeedMPH,Gust SpeedMPH,PrecipitationIn,Events,Conditions,WindDirDegrees,DateUTC
12:53 AM,57.9,17.1,20,29.67,10.0,Calm,Calm,-,N/A,,Clear,0,2012-10-21 06:53:00
1:53 AM,51.1,19.9,29,29.68,10.0,Calm,Calm,-,N/A,,Clear,0,2012-10-21 07:53:00
2:53 AM,53.1,19.9,27,29.68,10.0,West,3.5,-,N/A,,Clear,260,2012-10-21 08:53:00
3:53 AM,53.1,19.0,26,29.67,10.0,Calm,Calm,-,N/A,,Clear,0,2012-10-21 09:53:00
4:53 AM,45.0,19.0,36,29.68,10.0,Calm,Calm,-,N/A,,Clear,0,2012-10-21 10:53:00
5:53 AM,45.0,19.9,37,29.71,10.0,Calm,Calm,-,N/A,,Clear,0,2012-10-21 11:53:00
6:53 AM,46.0,19.9,35,29.74,10.0,Calm,Calm,-,N/A,,Clear,0,2012-10-21 12:53:00
7:53 AM,44.1,19.9,38,29.78,10.0,Calm,Calm,-,N/A,,Clear,0,2012-10-21 13:53:00
8:53 AM,53.6,23.0,30,29.87,10.0,East,3.5,-,N/A,,Clear,80,2012-10-21 14:53:00
9:53 AM,63.0,27.0,26,29.76,10.0,SE,8.1,-,N/A,,Clear,130,2012-10-21 15:53:00
10:53 AM,69.1,30.9,24,29.74,10.0,SSW,11.5,-,N/A,,Clear,200,2012-10-21 16:53:00
11:10 AM,69.8,32.0,25,29.87,10.0,South,13.8,23.0,N/A,,Clear,190,2012-10-21 17:10:00
11:53 AM,70.0,32.0,25,29.73,10.0,South,11.5,-,N/A,,Clear,190,2012-10-21 17:53:00
12:53 PM,72.0,32.0,23,29.71,10.0,SSW,10.4,21.9,N/A,,Clear,200,2012-10-21 18:53:00
1:53 PM,73.0,33.1,23,29.68,10.0,SW,17.3,24.2,N/A,,Clear,230,2012-10-21 19:53:00
2:53 PM,75.0,34.0,22,29.66,10.0,SSW,19.6,24.2,N/A,,Partly Cloudy,210,2012-10-21 20:53:00
3:53 PM,73.9,33.1,22,29.65,10.0,South,19.6,-,N/A,,Clear,190,2012-10-21 21:53:00
4:53 PM,73.0,33.1,23,29.67,10.0,SSW,18.4,-,N/A,,Clear,210,2012-10-21 22:53:00
5:53 PM,72.0,32.0,23,29.67,10.0,SSW,15.0,24.2,N/A,,Clear,210,2012-10-21 23:53:00
6:53 PM,69.1,32.0,25,29.68,10.0,South,11.5,-,N/A,,Mostly Cloudy,190,2012-10-22 00:53:00
7:53 PM,66.9,33.1,28,29.71,10.0,SW,9.2,-,N/A,,Mostly Cloudy,220,2012-10-22 01:53:00
8:53 PM,64.0,33.1,31,29.70,10.0,SSW,5.8,-,N/A,,Overcast,210,2012-10-22 02:53:00
9:53 PM,64.9,34.0,32,29.68,10.0,SSW,9.2,-,N/A,,Overcast,200,2012-10-22 03:53:00
10:53 PM,62.1,33.1,34,29.68,10.0,Calm,Calm,-,N/A,,Overcast,0,2012-10-22 04:53:00
11:53 PM,57.9,33.1,39,29.68,10.0,Calm,Calm,-,N/A,,Clear,0,2012-10-22 05:53:00